Location: Little Chesterford
(52.0500°N, 0.1833°E)
Time: 05:12:08
(UTC+00:00)

Okean 1-7 - Pass Details

Date: 26 September 2023
Orbit: 582 x 609 km, 82.5° (Epoch: 29 November)

Event Time Altitude Azimuth Distance (km) Brightness Sun altitude
Rises 18:13:01 0° 354° (N) 2,862 6.6 -4.5°
Reaches altitude 10° 18:15:22 10° 3° (N) 1,960 5.7 -4.9°
Maximum altitude 18:19:25 38° 72° (ENE) 936 3.6 -5.5°
Drops below altitude 10° 18:23:29 10° 141° (SE) 1,961 5.2 -6.1°
Sets 18:25:49 0° 149° (SSE) 2,863 6.1 -6.5°
